DW9936 Weather Reports


Display with metric or nautical units.
time (UTC)temp
F
wind
direction
speed
MPH
gust
MPH
rain 1hr
in
rain 24hr
in
rain mn
in
humidity
%
barometer
mb
20260502231509 48 323 0.0 0.0 0.00 0.00 0.00 71 1018.8
20260502230006 49 323 0.0 0.0 0.00 0.00 0.00 69 1018.8
20260502224503 49 323 0.0 0.0 0.00 0.00 0.00 69 1018.9
20260502223107 50 323 0.0 0.0 0.00 0.00 0.00 68 1019.0
20260502221602 51 323 0.0 0.0 0.00 0.00 0.00 66 1019.0
20260502214613 52 323 0.0 0.0 0.00 0.00 0.00 63 1019.1
20260502213118 53 323 0.0 0.0 0.00 0.00 0.00 61 1019.2
20260502211557 54 323 0.0 0.0 0.00 0.00 0.00 60 1019.2
20260502210053 55 323 0.0 0.0 0.00 0.00 0.00 59 1019.3
20260502204553 55 323 0.0 0.0 0.00 0.00 0.00 57 1019.4
20260502203111 56 323 0.0 0.0 0.00 0.00 0.00 55 1019.6
20260502201551 57 323 0.0 0.0 0.00 0.00 0.00 53 1019.5
20260502200057 58 321 0.0 2.0 0.00 0.00 0.00 52 1019.6
20260502194552 59 115 0.0 0.0 0.00 0.00 0.00 50 1019.6
20260502193050 60 116 0.0 0.0 0.00 0.00 0.00 48 1019.5
20260502191553 61 116 0.0 0.0 0.00 0.00 0.00 46 1019.5
20260502190050 62 116 0.0 0.0 0.00 0.00 0.00 46 1019.4
20260502184549 64 116 0.0 0.0 0.00 0.00 0.00 45 1019.3
20260502183049 66 116 0.0 0.0 0.00 0.00 0.00 43 1019.1
20260502181549 67 116 0.0 0.0 0.00 0.00 0.00 40 1019.0
20260502163054 74 123 0.0 4.0 0.00 0.00 0.00 30 1019.3
20260502161555 75 240 0.0 3.0 0.00 0.00 0.00 29 1019.4
20260502151536 78 92 0.0 3.0 0.00 0.00 0.00 26 1020.1
20260502123017 76 142 0.0 4.0 0.00 0.00 0.00 29 1022.1
20260502121513 76 284 0.0 4.0 0.00 0.00 0.00 31 1022.4
20260502114510 76 112 0.0 5.0 0.00 0.00 0.00 30 1022.7
20260502113006 75 321 0.0 3.0 0.00 0.00 0.00 32 1023.0
20260502111503 74 148 0.0 2.0 0.00 0.00 0.00 32 1023.2
20260502110001 74 210 0.0 3.0 0.00 0.00 0.00 31 1023.4
20260502104558 73 245 0.0 4.0 0.00 0.00 0.00 33 1023.5
20260502103056 73 107 1.0 5.0 0.00 0.00 0.00 34 1023.7
20260502101601 73 98 0.0 4.0 0.00 0.00 0.00 33 1023.9
20260502071509 64 155 0.0 1.0 0.00 0.00 0.00 52 1025.5
20260502070005 61 105 0.0 1.0 0.00 0.00 0.00 54 1025.6
20260502064601 60 189 0.0 1.0 0.00 0.00 0.00 56 1025.6
20260502063057 59 185 0.0 1.0 0.00 0.00 0.00 58 1025.7
20260502061551 57 129 0.0 1.0 0.00 0.00 0.00 59 1025.8
20260502060053 54 124 0.0 1.0 0.00 0.00 0.00 62 1025.8
20260502054543 52 44 0.0 1.0 0.00 0.00 0.00 65 1025.8
20260502053040 50 42 0.0 0.0 0.00 0.00 0.00 71 1025.9
20260502051537 48 355 0.0 1.0 0.00 0.00 0.00 74 1026.0
20260502050042 46 355 0.0 0.0 0.00 0.00 0.00 78 1025.9
20260502044537 44 18 0.0 0.0 0.00 0.00 0.00 80 1025.9
20260502043037 43 14 0.0 0.0 0.00 0.00 0.00 82 1025.8
20260502041530 42 15 0.0 0.0 0.00 0.00 0.00 82 1025.7
20260502040028 42 15 0.0 0.0 0.00 0.00 0.00 80 1025.7
20260502034526 42 15 0.0 0.0 0.00 0.00 0.00 80 1025.6
20260502033027 42 15 0.0 1.0 0.00 0.00 0.00 81 1025.6
20260502031524 42 279 0.0 0.0 0.00 0.00 0.00 79 1025.5
20260502030024 42 279 0.0 0.0 0.00 0.00 0.00 78 1025.5
20260502024526 43 279 0.0 0.0 0.00 0.00 0.00 77 1025.5
20260502023019 44 279 0.0 0.0 0.00 0.00 0.00 75 1025.5
20260502021516 45 279 0.0 0.0 0.00 0.00 0.00 74 1025.5
20260502020013 46 279 0.0 0.0 0.00 0.00 0.00 73 1025.5
20260502014510 47 279 0.0 0.0 0.00 0.00 0.00 71 1025.5
20260502013010 47 279 0.0 0.0 0.00 0.00 0.00 71 1025.5
20260502011505 48 279 0.0 0.0 0.00 0.00 0.00 70 1025.6
20260502010010 48 328 0.0 0.0 0.00 0.00 0.00 70 1025.8
20260502004503 48 323 0.0 1.0 0.00 0.00 0.00 69 1025.8
20260502003100 48 310 0.0 0.0 0.00 0.00 0.00 69 1025.9
20260502001559 48 310 0.0 0.0 0.00 0.00 0.00 68 1025.9
20260502000100 49 310 0.0 0.0 0.00 0.00 0.00 66 1026.0
20260501234557 50 310 0.0 0.0 0.00 0.00 0.00 65 1026.1
20260501233051 51 310 0.0 1.0 0.00 0.00 0.00 64 1026.2